Location: Praha
(50.0830°N, 14.4670°E)
Time: 13:29:18
(UTC+02:00)

ISS - Pass Details

Date: 08 July 2019
Orbit: 409 x 418 km, 51.6° (Epoch: 21 July)

Event Time Altitude Azimuth Distance (km) Brightness Sun altitude
Exits shadow 01:44:22 14° 116° (ESE) 1,256 -1.5 -16.9°
Drops below altitude 10° 01:45:24 10° 100° (E) 1,478 -1.0 -16.9°
Sets 01:48:02 0° 77° (ENE) 2,342 0.3 -16.8°
